TimeCST,TemperatureF,Dew PointF,Humidity,Sea Level PressureIn,VisibilityMPH,Wind Direction,Wind SpeedMPH,Gust SpeedMPH,PrecipitationIn,Events,Conditions,WindDirDegrees,DateUTC
12:15 AM,44.6,42.8,93,29.97,10.0,SSW,3.5,-,0.06,,Overcast,200,2012-12-24 06:15:00
12:35 AM,44.6,42.8,93,29.97,7.0,SW,3.5,-,0.09,,Overcast,230,2012-12-24 06:35:00
12:55 AM,46.4,42.8,87,29.97,8.0,West,4.6,-,0.10,,Overcast,260,2012-12-24 06:55:00
1:15 AM,46.4,42.8,87,29.96,10.0,Calm,Calm,-,0.01,,Overcast,0,2012-12-24 07:15:00
1:35 AM,46.4,42.8,87,29.96,10.0,Calm,Calm,-,0.01,,Overcast,0,2012-12-24 07:35:00
1:55 AM,46.4,42.8,87,29.95,10.0,Calm,Calm,-,0.02,,Overcast,0,2012-12-24 07:55:00
2:15 AM,46.4,44.6,93,29.95,3.0,WSW,3.5,-,0.03,,Overcast,240,2012-12-24 08:15:00
2:35 AM,46.4,44.6,93,29.93,10.0,Calm,Calm,-,0.03,,Overcast,0,2012-12-24 08:35:00
2:55 AM,46.4,44.6,93,29.93,10.0,West,5.8,-,0.04,,Overcast,260,2012-12-24 08:55:00
3:15 AM,48.2,46.4,93,29.91,10.0,SSW,4.6,-,0.03,,Overcast,200,2012-12-24 09:15:00
3:35 AM,48.2,46.4,93,29.90,8.0,West,5.8,-,0.12,,Overcast,260,2012-12-24 09:35:00
3:55 AM,50.0,46.4,87,29.89,10.0,WSW,6.9,-,0.12,,Overcast,250,2012-12-24 09:55:00
4:15 AM,50.0,48.2,94,29.89,10.0,SSW,5.8,-,0.01,,Overcast,200,2012-12-24 10:15:00
4:35 AM,51.8,48.2,88,29.88,10.0,SSW,5.8,-,0.02,,Overcast,200,2012-12-24 10:35:00
4:55 AM,51.8,48.2,88,29.88,10.0,SW,6.9,-,0.02,,Overcast,230,2012-12-24 10:55:00
5:15 AM,51.8,48.2,88,29.88,9.0,SSW,8.1,-,0.06,,Overcast,210,2012-12-24 11:15:00
5:35 AM,51.8,48.2,88,29.88,9.0,SSW,5.8,-,0.10,,Overcast,210,2012-12-24 11:35:00
5:55 AM,51.8,48.2,88,29.88,10.0,SSW,4.6,-,0.11,,Overcast,200,2012-12-24 11:55:00
6:15 AM,51.8,48.2,88,29.88,10.0,SW,4.6,-,N/A,,Overcast,230,2012-12-24 12:15:00
6:35 AM,51.8,48.2,88,29.88,10.0,SSW,6.9,-,N/A,,Overcast,210,2012-12-24 12:35:00
6:55 AM,51.8,50.0,94,29.87,10.0,SSW,3.5,-,N/A,,Overcast,210,2012-12-24 12:55:00
7:15 AM,51.8,50.0,94,29.87,10.0,SSW,3.5,-,N/A,,Overcast,210,2012-12-24 13:15:00
7:35 AM,53.6,50.0,88,29.87,10.0,SSW,6.9,-,N/A,,Overcast,200,2012-12-24 13:35:00
7:55 AM,53.6,50.0,88,29.88,10.0,SW,6.9,-,N/A,,Overcast,230,2012-12-24 13:55:00
8:15 AM,53.6,50.0,88,29.88,10.0,SW,4.6,-,N/A,,Overcast,230,2012-12-24 14:15:00
8:35 AM,53.6,51.8,94,29.88,10.0,WSW,3.5,-,N/A,,Overcast,240,2012-12-24 14:35:00
9:15 AM,53.6,51.8,94,29.88,10.0,SW,3.5,-,N/A,,Overcast,220,2012-12-24 15:15:00
9:35 AM,53.6,51.8,94,29.88,10.0,Calm,Calm,-,N/A,,Overcast,0,2012-12-24 15:35:00
9:55 AM,55.4,51.8,88,29.90,10.0,WSW,3.5,-,N/A,,Overcast,240,2012-12-24 15:55:00
10:15 AM,53.6,51.8,94,29.89,9.0,West,3.5,-,N/A,,Overcast,260,2012-12-24 16:15:00
10:35 AM,55.4,53.6,94,29.89,10.0,WSW,5.8,-,N/A,,Overcast,240,2012-12-24 16:35:00
10:55 AM,57.2,55.4,94,29.89,10.0,SW,6.9,-,N/A,,Mostly Cloudy,230,2012-12-24 16:55:00
11:15 AM,57.2,53.6,88,29.88,10.0,WSW,6.9,-,N/A,,Overcast,240,2012-12-24 17:15:00
11:35 AM,57.2,55.4,94,29.87,10.0,Calm,Calm,-,N/A,,Mostly Cloudy,0,2012-12-24 17:35:00
11:55 AM,59.0,55.4,88,29.86,10.0,SW,6.9,-,N/A,,Mostly Cloudy,220,2012-12-24 17:55:00
12:15 PM,60.8,55.4,82,29.85,10.0,WSW,5.8,-,N/A,,Scattered Clouds,240,2012-12-24 18:15:00
12:35 PM,62.6,55.4,77,29.84,10.0,WSW,4.6,-,N/A,,Clear,240,2012-12-24 18:35:00
12:55 PM,62.6,55.4,77,29.84,10.0,SW,4.6,-,N/A,,Clear,230,2012-12-24 18:55:00
1:15 PM,64.4,53.6,68,29.83,10.0,WSW,4.6,-,N/A,,Clear,250,2012-12-24 19:15:00
1:35 PM,64.4,53.6,68,29.83,10.0,WSW,10.4,-,N/A,,Partly Cloudy,250,2012-12-24 19:35:00
1:55 PM,62.6,53.6,72,29.84,10.0,West,8.1,-,N/A,,Mostly Cloudy,280,2012-12-24 19:55:00
2:15 PM,66.2,51.8,60,29.84,10.0,West,12.7,18.4,N/A,,Mostly Cloudy,260,2012-12-24 20:15:00
2:35 PM,66.2,48.2,52,29.84,10.0,WSW,10.4,-,N/A,,Mostly Cloudy,250,2012-12-24 20:35:00
2:55 PM,66.2,48.2,52,29.84,10.0,West,6.9,-,N/A,,Partly Cloudy,260,2012-12-24 20:55:00
3:15 PM,66.2,48.2,52,29.84,10.0,West,5.8,-,N/A,,Scattered Clouds,260,2012-12-24 21:15:00
3:35 PM,64.4,46.4,52,29.85,10.0,West,6.9,-,N/A,,Partly Cloudy,270,2012-12-24 21:35:00
3:55 PM,62.6,48.2,59,29.85,10.0,WNW,5.8,-,N/A,,Partly Cloudy,290,2012-12-24 21:55:00
4:15 PM,62.6,48.2,59,29.86,10.0,WNW,6.9,-,N/A,,Mostly Cloudy,290,2012-12-24 22:15:00
4:35 PM,59.0,48.2,67,29.87,10.0,West,3.5,-,N/A,,Mostly Cloudy,280,2012-12-24 22:35:00
4:55 PM,59.0,48.2,67,29.88,10.0,NW,5.8,-,N/A,,Partly Cloudy,320,2012-12-24 22:55:00
5:15 PM,59.0,48.2,67,29.88,10.0,North,4.6,-,N/A,,Mostly Cloudy,350,2012-12-24 23:15:00
5:35 PM,55.4,48.2,77,29.89,10.0,Calm,Calm,-,N/A,,Partly Cloudy,0,2012-12-24 23:35:00
5:55 PM,51.8,48.2,88,29.89,10.0,Calm,Calm,-,N/A,,Clear,0,2012-12-24 23:55:00
6:15 PM,51.8,48.2,88,29.90,10.0,Calm,Calm,-,N/A,,Clear,0,2012-12-25 00:15:00
6:35 PM,48.2,46.4,93,29.90,10.0,Calm,Calm,-,N/A,,Clear,0,2012-12-25 00:35:00
6:55 PM,46.4,44.6,93,29.90,8.0,Calm,Calm,-,N/A,,Clear,0,2012-12-25 00:55:00
7:15 PM,48.2,46.4,93,29.92,5.0,Calm,Calm,-,N/A,,Clear,0,2012-12-25 01:15:00
7:35 PM,48.2,46.4,93,29.93,10.0,Calm,Calm,-,N/A,,Mostly Cloudy,0,2012-12-25 01:35:00
7:55 PM,48.2,46.4,93,29.93,10.0,Calm,Calm,-,N/A,,Mostly Cloudy,0,2012-12-25 01:55:00
8:15 PM,46.4,44.6,93,29.93,9.0,Calm,Calm,-,N/A,,Partly Cloudy,0,2012-12-25 02:15:00
8:35 PM,46.4,44.6,93,29.94,7.0,Calm,Calm,-,N/A,,Clear,0,2012-12-25 02:35:00
8:55 PM,46.4,44.6,93,29.94,1.2,Calm,Calm,-,N/A,,Clear,0,2012-12-25 02:55:00
9:15 PM,44.6,42.8,93,29.93,0.2,Calm,Calm,-,N/A,,Unknown,0,2012-12-25 03:15:00
9:35 PM,44.6,42.8,93,29.95,0.2,Calm,Calm,-,N/A,,Unknown,0,2012-12-25 03:35:00
9:55 PM,42.8,41.0,93,29.95,0.5,Calm,Calm,-,N/A,,Unknown,0,2012-12-25 03:55:00
10:15 PM,42.8,41.0,93,29.95,1.5,Calm,Calm,-,N/A,,Clear,0,2012-12-25 04:15:00
10:35 PM,44.6,41.0,87,29.94,1.0,Calm,Calm,-,N/A,,Clear,0,2012-12-25 04:35:00
10:55 PM,42.8,39.2,87,29.94,0.5,NW,3.5,-,N/A,,Unknown,320,2012-12-25 04:55:00
11:15 PM,41.0,39.2,93,29.95,0.5,Calm,Calm,-,N/A,,Unknown,0,2012-12-25 05:15:00
11:35 PM,41.0,39.2,93,29.95,1.0,Calm,Calm,-,N/A,,Clear,0,2012-12-25 05:35:00
11:55 PM,39.2,37.4,93,29.95,0.5,Calm,Calm,-,N/A,,Unknown,0,2012-12-25 05:55:00